GW1293 Weather Reports


Display with metric or nautical units.
time (UTC)temp
F
wind
direction
speed
MPH
gust
MPH
rain 1hr
in
rain 24hr
in
rain mn
in
humidity
%
barometer
mb
20260508145848 57 139 0.0 0.0 0.00 0.00 0.00 66 1017.2
20260508145344 56 148 0.0 0.0 0.00 0.00 0.00 65 1017.3
20260508144841 55 177 0.0 0.0 0.00 0.00 0.00 70 1017.1
20260508144339 55 152 0.0 0.0 0.00 0.00 0.00 69 1017.2
20260508143836 55 144 0.0 1.0 0.00 0.00 0.00 65 1017.2
20260508143333 55 150 0.0 0.0 0.00 0.00 0.00 69 1017.3
20260508142830 55 148 0.0 1.0 0.00 0.00 0.00 65 1017.2
20260508142327 55 172 0.0 0.0 0.00 0.00 0.00 66 1017.2
20260508141823 55 156 0.0 1.0 0.00 0.00 0.00 66 1017.1
20260508141320 55 158 0.0 0.0 0.00 0.00 0.00 68 1017.3
20260508140818 55 146 0.0 0.0 0.00 0.00 0.00 64 1017.2
20260508140314 55 137 1.0 2.0 0.00 0.00 0.00 66 1017.2
20260508135810 55 146 0.0 0.0 0.00 0.00 0.00 69 1017.1
20260508135307 55 151 0.0 0.0 0.00 0.00 0.00 67 1016.9
20260508134802 55 151 0.0 0.0 0.00 0.00 0.00 63 1017.2
20260508134300 55 162 0.0 0.0 0.00 0.00 0.00 65 1017.2
20260508133756 55 153 0.0 0.0 0.00 0.00 0.00 66 1016.9
20260508133254 55 150 2.0 3.0 0.00 0.00 0.00 62 1017.1
20260508132751 55 162 0.0 0.0 0.00 0.00 0.00 65 1017.1
20260508132249 55 144 0.0 1.0 0.00 0.00 0.00 64 1017.1
20260508131744 55 160 0.0 0.0 0.00 0.00 0.00 65 1017.1
20260508131241 55 158 0.0 0.0 0.00 0.00 0.00 63 1017.4
20260508130737 55 158 1.0 2.0 0.00 0.00 0.00 63 1017.1
20260508130235 54 197 1.0 1.0 0.00 0.00 0.00 66 1016.9
20260508125730 53 152 1.0 1.0 0.00 0.00 0.00 64 1017.1
20260508125227 53 166 1.0 2.0 0.00 0.00 0.00 69 1017.3
20260508124725 53 155 0.0 0.0 0.00 0.00 0.00 68 1017.0
20260508124222 53 156 0.0 0.0 0.00 0.00 0.00 69 1016.9
20260508123720 52 147 1.0 2.0 0.00 0.00 0.00 67 1017.1
20260508123218 52 154 0.0 0.0 0.00 0.00 0.00 70 1016.9
20260508122714 52 158 0.0 0.0 0.00 0.00 0.00 70 1017.1
20260508122211 51 159 0.0 1.0 0.00 0.00 0.00 66 1016.9
20260508121709 51 150 0.0 0.0 0.00 0.00 0.00 70 1017.2
20260508121207 51 151 0.0 0.0 0.00 0.00 0.00 71 1016.8
20260508120704 50 166 0.0 0.0 0.00 0.00 0.00 72 1017.1
20260508120202 50 152 0.0 0.0 0.00 0.00 0.00 76 1016.8
20260508115659 50 144 1.0 1.0 0.00 0.00 0.00 73 1016.9
20260508115156 50 158 0.0 0.0 0.00 0.00 0.00 75 1017.1
20260508114653 49 152 0.0 0.0 0.00 0.00 0.00 73 1017.1
20260508114149 48 150 0.0 0.0 0.00 0.00 0.00 75 1016.9
20260508113646 47 151 0.0 0.0 0.00 0.00 0.00 79 1016.8
20260508113145 46 236 2.0 3.0 0.00 0.00 0.00 83 1016.7
20260508112640 45 140 0.0 0.0 0.00 0.00 0.00 86 1016.7
20260508112138 44 145 0.0 0.0 0.00 0.00 0.00 88 1016.8
20260508111634 43 144 0.0 0.0 0.00 0.00 0.00 91 1016.8
20260508111132 43 143 0.0 0.0 0.00 0.00 0.00 91 1016.7
20260508110629 43 143 0.0 0.0 0.00 0.00 0.00 92 1016.8
20260508110125 42 143 0.0 0.0 0.00 0.00 0.00 92 1016.8
20260508105620 42 144 0.0 0.0 0.00 0.00 0.00 93 1016.6
20260508105117 42 144 0.0 0.0 0.00 0.00 0.00 93 1016.6
20260508104615 42 144 0.0 0.0 0.00 0.00 0.00 93 1016.5
20260508104111 42 144 0.0 0.0 0.00 0.00 0.00 93 1016.5
20260508103608 42 144 0.0 0.0 0.00 0.00 0.00 92 1016.5
20260508103106 42 144 0.0 0.0 0.00 0.00 0.00 93 1016.2
20260508102603 41 144 0.0 0.0 0.00 0.00 0.00 93 1016.3
20260508102100 41 145 0.0 0.0 0.00 0.00 0.00 93 1016.3
20260508101558 42 145 0.0 0.0 0.00 0.00 0.00 93 1016.3
20260508101055 42 144 0.0 0.0 0.00 0.00 0.00 93 1016.1
20260508100553 42 144 0.0 0.0 0.00 0.00 0.00 93 1016.1
20260508100050 42 144 0.0 0.0 0.00 0.00 0.00 93 1016.2
20260508095547 42 144 0.0 0.0 0.00 0.00 0.00 93 1016.2
20260508095043 42 144 0.0 0.0 0.00 0.00 0.00 93 1016.1
20260508094541 42 144 0.0 0.0 0.00 0.00 0.00 92 1016.2
20260508094038 42 144 0.0 0.0 0.00 0.00 0.00 93 1016.2
20260508093534 42 144 0.0 0.0 0.00 0.00 0.00 93 1016.2
20260508093032 42 144 0.0 0.0 0.00 0.00 0.00 93 1016.3
20260508092529 42 144 0.0 0.0 0.00 0.00 0.00 94 1016.3
20260508092028 42 145 0.0 0.0 0.00 0.00 0.00 94 1016.2
20260508091525 43 144 0.0 0.0 0.00 0.00 0.00 94 1016.4
20260508091021 43 144 0.0 0.0 0.00 0.00 0.00 94 1016.3
20260508090520 43 144 0.0 0.0 0.00 0.00 0.00 95 1016.4
20260508090016 43 143 0.0 0.0 0.00 0.00 0.00 95 1016.5
20260508085513 43 144 0.0 0.0 0.00 0.00 0.00 96 1016.5
20260508085010 43 144 0.0 0.0 0.00 0.00 0.00 96 1016.6
20260508084507 43 144 0.0 0.0 0.00 0.00 0.00 96 1016.4
20260508084004 43 144 0.0 0.0 0.00 0.00 0.00 97 1016.5
20260508083501 43 144 0.0 0.0 0.00 0.00 0.00 97 1016.4
20260508082956 43 144 0.0 0.0 0.00 0.00 0.00 97 1016.5
20260508082453 43 145 0.0 0.0 0.00 0.00 0.00 96 1016.3
20260508081951 43 145 0.0 0.0 0.00 0.00 0.00 96 1016.3
20260508081448 44 147 0.0 0.0 0.00 0.00 0.00 96 1016.4
20260508080944 44 146 0.0 0.0 0.00 0.00 0.00 96 1016.3
20260508080442 44 146 0.0 0.0 0.00 0.00 0.00 96 1016.5
20260508075939 44 147 0.0 0.0 0.00 0.00 0.00 95 1016.3
20260508075436 44 146 0.0 0.0 0.00 0.00 0.00 95 1016.5
20260508074933 45 144 0.0 0.0 0.00 0.00 0.00 94 1016.5
20260508074431 45 139 0.0 0.0 0.00 0.00 0.00 94 1016.6
20260508073927 45 147 0.0 0.0 0.00 0.00 0.00 93 1016.5
20260508073425 45 146 0.0 0.0 0.00 0.00 0.00 93 1016.6
20260508072922 46 147 0.0 0.0 0.00 0.00 0.00 93 1016.3
20260508072418 46 146 0.0 0.0 0.00 0.00 0.00 92 1016.6
20260508071916 46 146 0.0 0.0 0.00 0.00 0.00 92 1016.6
20260508071413 46 146 0.0 0.0 0.00 0.00 0.00 90 1016.8
20260508070911 47 144 0.0 0.0 0.00 0.00 0.00 90 1016.8
20260508070409 47 145 0.0 0.0 0.00 0.00 0.00 89 1017.0
20260508065906 47 147 0.0 0.0 0.00 0.00 0.00 89 1017.1
20260508065404 47 147 0.0 0.0 0.00 0.00 0.00 89 1017.0
20260508064902 48 146 0.0 0.0 0.00 0.00 0.00 89 1016.9
20260508064359 48 139 0.0 0.0 0.00 0.00 0.00 87 1017.1
20260508063857 47 142 0.0 0.0 0.00 0.00 0.00 86 1017.0
20260508063354 48 146 0.0 0.0 0.00 0.00 0.00 87 1017.1
20260508062851 48 144 0.0 0.0 0.00 0.00 0.00 87 1017.3
20260508062349 48 145 0.0 0.0 0.00 0.00 0.00 86 1017.2
20260508061846 48 150 0.0 0.0 0.00 0.00 0.00 84 1017.4
20260508061343 48 156 0.0 0.0 0.00 0.00 0.00 86 1017.5
20260508060839 48 116 0.0 0.0 0.00 0.00 0.00 87 1017.4
20260508060337 48 141 0.0 0.0 0.00 0.00 0.00 87 1017.3
20260508055832 48 141 0.0 0.0 0.00 0.00 0.00 86 1017.4
20260508055330 48 147 0.0 0.0 0.00 0.00 0.00 86 1017.1
20260508054826 48 137 0.0 0.0 0.00 0.00 0.00 87 1017.1
20260508054324 47 146 0.0 0.0 0.00 0.00 0.00 82 1016.9
20260508053821 47 147 0.0 0.0 0.00 0.00 0.00 82 1016.7
20260508053318 47 146 0.0 0.0 0.00 0.00 0.00 82 1016.9
20260508052815 47 146 0.0 0.0 0.00 0.00 0.00 83 1016.9
20260508052312 47 145 0.0 0.0 0.00 0.00 0.00 84 1016.7
20260508051808 47 145 0.0 0.0 0.00 0.00 0.00 84 1016.6
20260508051304 46 146 0.0 0.0 0.00 0.00 0.00 84 1016.9
20260508050801 46 147 0.0 0.0 0.00 0.00 0.00 84 1016.7
20260508050258 47 147 0.0 0.0 0.00 0.00 0.00 84 1016.7
20260508045753 47 146 0.0 0.0 0.00 0.00 0.00 83 1016.8
20260508045251 47 147 0.0 0.0 0.00 0.00 0.00 83 1016.7
20260508044749 46 147 0.0 0.0 0.00 0.00 0.00 83 1016.9
20260508044245 46 146 0.0 0.0 0.00 0.00 0.00 83 1016.9
20260508043741 47 146 0.0 0.0 0.00 0.00 0.00 83 1016.9
20260508043239 47 146 0.0 0.0 0.00 0.00 0.00 83 1016.8
20260508042735 47 139 0.0 0.0 0.00 0.00 0.00 83 1017.1
20260508042233 46 146 0.0 0.0 0.00 0.00 0.00 83 1017.2
20260508041729 46 147 0.0 0.0 0.00 0.00 0.00 83 1017.3
20260508041226 46 147 0.0 0.0 0.00 0.00 0.00 86 1017.0
20260508040723 46 147 0.0 0.0 0.00 0.00 0.00 87 1016.9
20260508040220 45 146 0.0 0.0 0.00 0.00 0.00 84 1017.1
20260508035717 45 146 0.0 0.0 0.00 0.00 0.00 83 1017.0
20260508035215 45 145 0.0 0.0 0.00 0.00 0.00 83 1016.9
20260508034711 46 145 0.0 0.0 0.00 0.00 0.00 83 1016.8
20260508034209 46 146 0.0 0.0 0.00 0.00 0.00 82 1016.7
20260508033705 46 146 0.0 0.0 0.00 0.00 0.00 82 1016.9
20260508033204 46 146 0.0 0.0 0.00 0.00 0.00 83 1017.2
20260508032701 46 145 0.0 0.0 0.00 0.00 0.00 84 1016.7
20260508032158 47 146 0.0 0.0 0.00 0.00 0.00 84 1017.1
20260508031654 46 144 0.0 0.0 0.00 0.00 0.00 82 1017.0
20260508031150 46 147 0.0 0.0 0.00 0.00 0.00 80 1016.8
20260508030647 46 146 0.0 0.0 0.00 0.00 0.00 79 1016.7
20260508030145 46 147 0.0 0.0 0.00 0.00 0.00 79 1016.9
20260508025641 45 146 0.0 0.0 0.00 0.00 0.00 79 1016.7
20260508025138 45 146 0.0 0.0 0.00 0.00 0.00 80 1016.9
20260508024634 45 146 0.0 0.0 0.00 0.00 0.00 79 1016.9
20260508024131 46 145 0.0 0.0 0.00 0.00 0.00 77 1016.8
20260508023627 46 145 0.0 0.0 0.00 0.00 0.00 75 1017.0
20260508023125 46 145 0.0 0.0 0.00 0.00 0.00 75 1016.9
20260508022621 46 146 0.0 0.0 0.00 0.00 0.00 74 1016.8
20260508022118 46 145 0.0 0.0 0.00 0.00 0.00 73 1016.6
20260508021614 47 146 0.0 0.0 0.00 0.00 0.00 73 1016.8
20260508021110 47 145 0.0 0.0 0.00 0.00 0.00 73 1016.9
20260508020608 47 145 0.0 0.0 0.00 0.00 0.00 72 1016.6
20260508020105 47 145 0.0 0.0 0.00 0.00 0.00 72 1017.0
20260508015603 47 146 0.0 0.0 0.00 0.00 0.00 71 1016.9
20260508015059 48 147 0.0 0.0 0.00 0.00 0.00 71 1017.0
20260508014555 48 146 0.0 0.0 0.00 0.00 0.00 70 1016.6
20260508014052 48 145 0.0 0.0 0.00 0.00 0.00 71 1016.7
20260508013548 48 145 0.0 0.0 0.00 0.00 0.00 70 1016.8
20260508013045 48 145 0.0 0.0 0.00 0.00 0.00 69 1016.9
20260508012542 49 145 0.0 0.0 0.00 0.00 0.00 67 1016.7
20260508012040 50 145 0.0 0.0 0.00 0.00 0.00 67 1016.7
20260508011538 50 146 0.0 0.0 0.00 0.00 0.00 65 1016.8
20260508011035 50 146 0.0 0.0 0.00 0.00 0.00 66 1016.7
20260508010531 50 146 0.0 0.0 0.00 0.00 0.00 65 1016.7
20260508010029 51 147 0.0 0.0 0.00 0.00 0.00 64 1016.5
20260508005525 51 147 0.0 0.0 0.00 0.00 0.00 60 1016.5
20260508005022 52 147 0.0 0.0 0.00 0.00 0.00 60 1016.3
20260508004518 52 149 0.0 0.0 0.00 0.00 0.00 59 1016.3
20260508004015 52 149 0.0 0.0 0.00 0.00 0.00 60 1016.0
20260508003512 53 150 0.0 0.0 0.00 0.00 0.00 60 1016.6
20260508003009 53 149 0.0 0.0 0.00 0.00 0.00 56 1016.3
20260508002505 53 145 0.0 0.0 0.00 0.00 0.00 57 1016.4
20260508002003 53 145 0.0 0.0 0.00 0.00 0.00 54 1016.4
20260508001458 54 145 0.0 0.0 0.00 0.00 0.00 53 1016.1
20260508000955 54 148 0.0 0.0 0.00 0.00 0.00 54 1015.9
20260508000450 55 145 0.0 0.0 0.00 0.00 0.00 49 1016.0
20260507235948 55 139 0.0 0.0 0.00 0.00 0.00 52 1016.0
20260507235445 56 143 0.0 0.0 0.00 0.00 0.00 52 1016.0
20260507234942 56 17 0.0 1.0 0.00 0.00 0.00 49 1015.8
20260507234438 56 142 0.0 0.0 0.00 0.00 0.00 46 1015.8
20260507233935 56 139 0.0 0.0 0.00 0.00 0.00 47 1015.8
20260507233432 56 171 0.0 0.0 0.00 0.00 0.00 49 1016.1
20260507232931 56 153 0.0 0.0 0.00 0.00 0.00 47 1015.9
20260507232426 56 165 0.0 0.0 0.00 0.00 0.00 48 1015.8
20260507231924 56 139 1.0 1.0 0.00 0.00 0.00 46 1015.9
20260507231420 57 148 0.0 1.0 0.00 0.00 0.00 45 1015.6
20260507230917 57 160 1.0 2.0 0.00 0.00 0.00 44 1015.7
20260507230415 57 141 0.0 0.0 0.00 0.00 0.00 44 1015.6
20260507225914 57 137 0.0 0.0 0.00 0.00 0.00 43 1015.7
20260507225411 58 175 3.0 3.0 0.00 0.00 0.00 43 1015.9
20260507224907 58 152 0.0 0.0 0.00 0.00 0.00 43 1015.8
20260507224403 58 113 0.0 0.0 0.00 0.00 0.00 43 1015.9
20260507223900 59 89 2.0 3.0 0.00 0.00 0.00 47 1016.0
20260507223356 59 166 3.0 5.0 0.00 0.00 0.00 43 1016.2
20260507222854 60 194 3.0 5.0 0.00 0.00 0.00 41 1015.9
20260507222349 60 6 2.0 5.0 0.00 0.00 0.00 42 1016.2
20260507221847 61 335 3.0 6.0 0.00 0.00 0.00 42 1016.1
20260507221343 60 155 0.0 0.0 0.00 0.00 0.00 43 1016.0
20260507220839 59 60 5.0 7.0 0.00 0.00 0.00 42 1015.9
20260507220338 59 164 1.0 3.0 0.00 0.00 0.00 42 1015.8
20260507215833 57 155 0.0 0.0 0.00 0.00 0.00 48 1016.3
20260507215331 57 130 0.0 0.0 0.00 0.00 0.00 47 1016.1
20260507214828 57 181 3.0 5.0 0.00 0.00 0.00 47 1016.0
20260507214325 58 132 2.0 2.0 0.00 0.00 0.00 45 1016.0
20260507213820 59 149 0.0 0.0 0.00 0.00 0.00 47 1015.9
20260507213317 60 153 3.0 7.0 0.00 0.00 0.00 43 1015.8
20260507212814 60 117 0.0 1.0 0.00 0.00 0.00 47 1015.9
20260507212310 60 160 1.0 2.0 0.00 0.00 0.00 41 1016.0
20260507211807 60 287 3.0 5.0 0.00 0.00 0.00 40 1015.9
20260507211303 60 130 3.0 6.0 0.00 0.00 0.00 40 1015.7
20260507210800 59 180 0.0 1.0 0.00 0.00 0.00 41 1016.1
20260507210257 60 185 4.0 6.0 0.00 0.00 0.00 42 1016.0
20260507205753 59 38 2.0 5.0 0.00 0.00 0.00 44 1015.9
20260507205251 59 150 0.0 0.0 0.00 0.00 0.00 44 1015.7
20260507204747 59 177 2.0 3.0 0.00 0.00 0.00 44 1015.8
20260507204245 60 178 3.0 3.0 0.00 0.00 0.00 44 1015.6
20260507203742 59 25 3.0 7.0 0.00 0.00 0.00 46 1015.6
20260507203239 60 195 4.0 5.0 0.00 0.00 0.00 43 1015.5
20260507202735 60 153 2.0 2.0 0.00 0.00 0.00 45 1015.6
20260507202232 60 71 2.0 2.0 0.00 0.00 0.00 45 1015.6
20260507201727 58 344 3.0 3.0 0.00 0.00 0.00 46 1015.9
20260507201224 59 178 3.0 3.0 0.00 0.00 0.00 47 1015.7
20260507200720 59 100 3.0 6.0 0.00 0.00 0.00 48 1015.9
20260507200216 58 340 4.0 5.0 0.00 0.00 0.00 44 1016.1
20260507195713 57 150 4.0 6.0 0.00 0.00 0.00 45 1015.9
20260507195210 59 152 3.0 3.0 0.00 0.00 0.00 45 1015.8
20260507194707 59 21 2.0 3.0 0.00 0.00 0.00 46 1016.0
20260507194203 57 215 3.0 3.0 0.00 0.00 0.00 49 1015.9
20260507193700 58 146 0.0 1.0 0.00 0.00 0.00 46 1015.7
20260507193156 60 136 0.0 1.0 0.00 0.00 0.00 49 1015.9
20260507192652 59 129 1.0 2.0 0.00 0.00 0.00 51 1016.0
20260507192150 60 335 1.0 3.0 0.00 0.00 0.00 53 1016.0
20260507191645 60 150 3.0 3.0 0.00 0.00 0.00 45 1015.9
20260507191142 59 157 0.0 0.0 0.00 0.00 0.00 49 1016.0
20260507190639 59 184 1.0 2.0 0.00 0.00 0.00 46 1016.0
20260507190138 59 352 6.0 7.0 0.00 0.00 0.00 45 1016.1
20260507185636 59 186 0.0 1.0 0.00 0.00 0.00 47 1016.2
20260507185132 60 172 1.0 2.0 0.00 0.00 0.00 53 1016.1
20260507184630 60 58 4.0 6.0 0.00 0.00 0.00 45 1016.2
20260507184128 59 142 0.0 0.0 0.00 0.00 0.00 49 1016.0
20260507183624 58 356 3.0 7.0 0.00 0.00 0.00 49 1016.3
20260507183121 59 345 4.0 6.0 0.00 0.00 0.00 46 1016.4
20260507182618 58 119 1.0 3.0 0.00 0.00 0.00 52 1016.6
20260507182114 58 13 3.0 3.0 0.00 0.00 0.00 47 1016.2
20260507181611 59 307 4.0 6.0 0.00 0.00 0.00 45 1016.6
20260507181107 59 79 0.0 1.0 0.00 0.00 0.00 46 1016.3
20260507180603 59 90 3.0 3.0 0.00 0.00 0.00 49 1016.4
20260507180101 58 148 0.0 0.0 0.00 0.00 0.00 49 1016.3
20260507175556 57 160 3.0 5.0 0.00 0.00 0.00 54 1016.5
20260507175054 57 155 0.0 1.0 0.00 0.00 0.00 48 1016.3
20260507174551 57 303 1.0 3.0 0.00 0.00 0.00 51 1016.4
20260507174049 57 159 4.0 5.0 0.00 0.00 0.00 47 1016.6
20260507173545 58 127 0.0 1.0 0.00 0.00 0.00 50 1016.6
20260507173043 57 155 1.0 2.0 0.00 0.00 0.00 53 1016.3
20260507172538 58 155 1.0 2.0 0.00 0.00 0.00 53 1016.8
20260507172036 57 177 3.0 3.0 0.00 0.00 0.00 48 1017.0
20260507171531 57 144 2.0 2.0 0.00 0.00 0.00 49 1016.9
20260507171028 56 243 1.0 3.0 0.00 0.00 0.00 54 1016.8
20260507170525 57 95 2.0 2.0 0.00 0.00 0.00 53 1017.2
20260507170022 57 199 2.0 2.0 0.00 0.00 0.00 56 1017.1
20260507165518 56 98 1.0 2.0 0.00 0.00 0.00 54 1016.8
20260507165014 57 167 2.0 3.0 0.00 0.00 0.00 49 1017.3
20260507164511 56 52 1.0 2.0 0.00 0.00 0.00 51 1017.0
20260507164008 56 134 3.0 7.0 0.00 0.00 0.00 51 1017.3
20260507163505 56 179 3.0 3.0 0.00 0.00 0.00 51 1017.2
20260507163003 56 109 3.0 5.0 0.00 0.00 0.00 50 1017.2
20260507162457 56 192 2.0 3.0 0.00 0.00 0.00 52 1017.0
20260507161954 57 358 2.0 3.0 0.00 0.00 0.00 53 1017.0
20260507161451 56 153 0.0 1.0 0.00 0.00 0.00 49 1017.0
20260507160948 56 154 1.0 3.0 0.00 0.00 0.00 54 1017.0
20260507160443 56 166 1.0 2.0 0.00 0.00 0.00 50 1016.9
20260507155939 56 126 2.0 3.0 0.00 0.00 0.00 48 1017.0
20260507155436 56 165 1.0 2.0 0.00 0.00 0.00 53 1017.0
20260507154933 55 333 1.0 2.0 0.00 0.00 0.00 52 1017.1
20260507154429 55 142 0.0 0.0 0.00 0.00 0.00 53 1016.8
20260507153927 56 247 2.0 3.0 0.00 0.00 0.00 53 1016.9
20260507153423 56 173 2.0 2.0 0.00 0.00 0.00 51 1017.1
20260507152919 55 95 1.0 2.0 0.00 0.00 0.00 53 1017.2
20260507152416 55 165 1.0 2.0 0.00 0.00 0.00 48 1017.1
20260507151912 55 175 2.0 2.0 0.00 0.00 0.00 50 1016.9
20260507151409 55 257 4.0 5.0 0.00 0.00 0.00 53 1017.1
20260507150906 54 181 3.0 5.0 0.00 0.00 0.00 51 1017.0
20260507150402 56 259 3.0 5.0 0.00 0.00 0.00 51 1016.9